This is the latest recevied weather packets stored in our database for station/object K4AMF. If no packets are shown the sender has not sent any weather packets the latest 1 day(s).
| Time | Temp. | Humidity | Pressure | Rain* | Wind** | Luminosity | Snow |
|---|---|---|---|---|---|---|---|
| 1778045411 | 19.44° C | 80% | 1017.6 hPa | 0 mm | - | 0 W/m² | - |
| 1778043898 | 18.33° C | 84% | 1017.6 hPa | 0 mm | - | 0 W/m² | - |
| 1778043595 | 18.33° C | 84% | 1017.7 hPa | 0 mm | - | 0 W/m² | - |
| 1778042988 | 18.33° C | 83% | 1017.8 hPa | 0 mm | - | 0 W/m² | - |
| 1778042383 | 18.89° C | 83% | 1017.7 hPa | 0 mm | - | 0 W/m² | - |
| 1778041778 | 18.89° C | 82% | 1017.7 hPa | 0 mm | - | 0 W/m² | - |
| 1778041477 | 18.89° C | 82% | 1017.7 hPa | 0 mm | - | 0 W/m² | - |
| 1778041175 | 18.89° C | 81% | 1018 hPa | 0 mm | - | 0 W/m² | - |
| 1778040267 | 19.44° C | 80% | 1018 hPa | 0 mm | - | 0 W/m² | - |
| 1778039963 | 19.44° C | 79% | 1018 hPa | 0 mm | - | 0 W/m² | - |
| 1778039661 | 19.44° C | 79% | 1018 hPa | 0 mm | - | 0 W/m² | - |
| 1778039357 | 20° C | 79% | 1018 hPa | 0 mm | - | 0 W/m² | - |
| 1778039054 | 20° C | 78% | 1018.2 hPa | 0 mm | - | 0 W/m² | - |
| 1778038751 | 20° C | 77% | 1017.7 hPa | 0 mm | - | 0 W/m² | - |
| 1778038449 | 20.56° C | 76% | 1017.8 hPa | 0 mm | - | 0 W/m² | - |
| 1778037539 | 21.11° C | 74% | 1017.7 hPa | 0 mm | - | 0 W/m² | - |
| 1778037236 | 21.11° C | 74% | 1017.7 hPa | 0 mm | - | 0 W/m² | - |
| 1778036934 | 21.11° C | 74% | 1017.7 hPa | 0 mm | - | 0 W/m² | - |
| 1778036632 | 21.11° C | 73% | 1017.8 hPa | 0 mm | - | 0 W/m² | - |
| 1778036328 | 21.67° C | 73% | 1017.7 hPa | 0 mm | - | 0 W/m² | - |
| 1778035722 | 21.67° C | 72% | 1017.5 hPa | 0 mm | - | 0 W/m² | - |
| 1778035115 | 21.67° C | 72% | 1017.5 hPa | 0 mm | - | 0 W/m² | - |
| 1778034206 | 21.67° C | 72% | 1017.5 hPa | 0 mm | - | 0 W/m² | - |
| 1778033601 | 22.22° C | 71% | 1017.1 hPa | 0 mm | - | 0 W/m² | - |
| 1778033297 | 22.22° C | 71% | 1017.3 hPa | 0 mm | - | 0 W/m² | - |
* Rain latest hour (hover to see other rain measurements)
** Current wind speed in m/s (hover to see current wind gust speed)